Tracking 27122 objects as of 25-Mar-2023
HD Live streaming from Space Station
objects crossing your sky now

RESURS O1 DEB

Track RESURS O1 DEB now!
10-day predictions


NORAD ID: 23345
Int'l Code: 1994-074D
Perigee: 654.5 km
Apogee: 935.5 km
Inclination: 97.9 °
Period: 100.6 minutes
Semi major axis: 7165 km
RCS: 0.0839 m2 (small)
Launch date: November 4, 1994
Source: Commonwealth of Independent States (former USSR) (CIS)
Launch site: TYURATAM MISSILE AND SPACE COMPLEX (TTMTR)

Note: This is SATELLITE DEBRIS
Your satellite tracking list
Your tracking list is empty




NASA's NSSDC Master Catalog

Two Line Element Set (TLE):
1 23345U 94074D   23083.64806133  .00001423  00000-0  44899-3 0  9995
2 23345  97.8896 338.4532 0196049 135.5206 282.9009 14.31163685479025
Source of the keplerian elements: AFSPC